CAPE
280 961 839 765 791 903 399 411 296 193 238 307 145 66 0 6 0 0 0 0 0 0 0 0 3 5 5 5 5 7 5 3 3
1167 1130 900 643 667 601 198 76 29 0 0 139 78 26 0 0 0 0 0 0 1 3 2 2 2 3 3 3 5 6 6 4 6
1122 1039 1047 819 602 509 85 15 3 0 0 72 246 0 0 0 0 0 0 0 1 4 1 0 1 0 0 1 1 1 1 1 1
1133 1090 1171 923 714 771 429 10 0 0 119 393 220 0 0 0 0 0 0 0 0 2 0 0 0 0 0 0 0 0 0 0 0
729 572 907 974 736 462 622 211 0 0 0 416 39 0 0 0 0 0 0 48 0 0 0 0 0 0 0 0 0 0 0 0 0
448 361 191 659 608 403 537 536 56 0 0 28 0 0 0 0 0 0 14 0 0 1 0 0 0 0 0 0 0 0 0 0 0
511 376 87 208 235 189 429 643 89 0 0 0 0 0 0 0 0 0 16 0 0 1 1 0 0 0 0 0 0 0 0 0 0
338 263 8 0 20 23 117 155 20 0 0 0 0 0 0 0 0 0 6 0 0 1 1 0 0 0 0 0 0 0 0 0 0
456 330 48 14 2 8 1 0 0 0 0 0 0 0 0 0 0 0 0 30 0 0 4 1 0 0 0 1 8 5 0 0 0
284 353 343 262 115 16 11 0 0 0 0 0 0 0 0 0 0 0 0 0 28 6 37 82 77 38 2 32 39 65 50 55 46
242 199 309 303 173 178 109 39 0 0 0 0 0 0 0 0 0 0 0 0 0 42 24 58 165 246 203 176 158 370 343 137 133
184 195 235 356 392 225 86 75 37 0 0 0 0 0 0 0 0 0 0 0 0 0 0 31 77 213 329 283 258 579 246 236 323
38 158 173 155 307 326 196 111 39 18 0 0 0 0 0 0 0 0 0 0 0 0 0 80 168 177 160 212 244 588 379 360 315
18 13 43 124 101 92 192 235 181 70 17 0 0 0 0 0 0 0 0 0 0 0 0 0 12 81 216 162 190 324 519 482 347
33 39 42 29 47 80 74 44 147 129 91 107 103 17 4 0 0 0 0 0 0 0 0 0 0 0 36 161 203 359 525 446 469
38 39 48 46 72 90 123 112 113 99 87 75 5 45 19 26 3 0 0 0 0 0 0 0 0 0 0 24 140 256 355 426 376
41 30 25 37 43 52 43 47 82 59 87 67 23 30 16 12 14 3 0 0 0 0 0 0 0 7 14 0 11 116 285 230 322
48 38 41 40 19 0 0 0 27 22 12 68 37 35 17 4 7 5 1 0 0 0 0 0 0 1 0 21 3 8 75 253 248
95 45 55 58 24 16 24 25 29 67 63 11 25 22 0 5 12 15 9 2 0 0 0 0 2 9 0 30 34 25 19 149 225
88 53 29 46 35 38 39 31 35 49 69 32 38 36 40 56 63 21 0 0 0 0 0 2 24 11 1 41 47 18 4 126 261
CIN
-23 0 -2 -2 -3 -1 -20 -16 -54 -81 -69 -57 -140 -138 0 -53 0 0 0 0 0 0 0 0 0 0 0 0 0 0 0 0 0
0 -2 -2 -3 -2 -6 -54 -91 -131 0 0 -89 -120 -84 0 0 0 0 0 0 0 0 0 0 0 0 0 0 0 0 0 0 0
-1 -2 -1 -2 -2 -6 -86 -164 -97 0 0 -85 -45 0 0 0 0 0 0 0 0 0 0 0 0 0 0 0 0 0 0 0 0
-1 -1 -1 0 -1 0 -10 -117 0 0 -82 -11 -47 0 0 0 0 0 0 0 0 0 0 0 0 0 0 0 0 0 0 0 0
-7 -11 -3 -1 -1 -3 -2 -30 -5 0 0 -13 -97 0 0 0 0 0 0 -23 0 0 0 0 0 0 0 0 0 0 0 0 0
-16 -25 -44 -7 -4 -5 -4 0 -43 0 0 -48 0 0 0 0 0 0 -39 0 0 0 0 0 0 0 0 0 0 0 0 0 0
-18 -23 -87 -38 -21 -22 -6 -1 -31 0 0 0 0 0 0 0 0 0 -52 0 0 0 0 0 0 0 0 0 0 0 0 0 0
-39 -52 -113 0 -109 -101 -29 -22 -80 0 0 0 0 0 0 0 0 0 -68 0 0 0 0 0 0 0 0 0 0 0 0 0 0
-27 -29 -73 -133 -105 -133 -144 0 0 0 0 0 0 0 0 0 0 0 0 -49 0 0 0 0 0 0 0 0 -1 -1 0 0 0
-33 -26 -21 -23 -55 -96 -106 -6 0 0 0 0 0 0 0 0 0 0 0 0 -26 -4 -6 -43 -28 0 0 0 0 0 0 0 0
-44 -40 -26 -25 -40 -55 -70 -35 0 0 0 0 0 0 0 0 0 0 0 0 0 -38 -25 -7 -53 -20 -48 -48 -14 -1 -3 0 0
-74 -66 -42 -29 -22 -30 -46 -49 -57 0 0 0 0 0 0 0 0 0 0 0 0 0 0 -34 -16 -24 0 -6 -10 0 -6 -12 -4
-69 -44 -62 -44 -34 -21 -40 -36 -50 -62 0 0 0 0 0 0 0 0 0 0 0 0 0 -50 -55 -50 -7 -30 -11 0 -5 -2 -4
-125 -105 -94 -62 -60 -63 -36 -31 -19 -29 -15 0 0 0 0 0 0 0 0 0 0 0 0 0 -49 -60 -29 -15 -15 -9 0 -3 -4
-124 -107 -103 -77 -54 -74 -87 -52 -24 -17 -17 -9 -8 -32 -32 0 0 0 0 0 0 0 0 0 0 0 -84 -45 -19 -7 -1 -2 -6
-123 -121 -107 -95 -63 -58 -38 -23 -12 -23 -32 -16 -12 -22 -34 -64 -75 -35 0 0 0 0 0 0 0 0 0 -135 -62 -38 -20 -16 -12
-137 -142 -127 -87 -60 -49 -61 -36 -27 -27 -28 -7 -3 -1 -10 -31 -27 -33 -11 0 0 0 0 0 0 -117 -168 -11 -177 -95 -51 -37 -18
-123 -109 -100 -98 -77 0 0 -2 -42 -42 -22 -17 -12 -7 -3 -11 -50 -61 -9 0 0 0 0 0 0 -109 -5 -175 -227 -252 -174 -71 -44
-85 -74 -67 -61 -83 -69 -67 -50 -43 -13 -1 -14 -2 -10 0 -14 -5 -33 -51 -64 0 0 0 0 -65 -88 0 -131 -149 -202 -245 -100 -54
-85 -98 -112 -86 -90 -68 -62 -64 -42 -18 -6 -5 -8 -1 0 -3 0 -6 0 0 0 0 0 -90 -73 -130 -9 -151 -122 -176 -236 -90 -30
Wind_Speed
7 5 5 7 9 9 10 9 8 8 5 8 7 2 5 8 6 5 8 7 7 7 8 8 8 8 8 8 8 9 9 9 9
5 7 7 8 8 9 9 8 8 6 2 2 7 3 5 6 5 5 6 6 6 6 6 6 6 6 7 7 7 7 7 7 8
6 7 7 7 8 9 9 7 7 5 5 6 7 3 6 7 5 4 5 8 5 5 5 5 5 5 5 5 5 5 6 6 6
7 8 9 10 9 8 10 8 6 4 3 7 8 4 5 6 4 4 4 9 5 4 4 3 3 3 3 3 3 3 4 4 4
9 8 10 11 10 9 9 9 7 5 1 6 6 4 6 6 5 3 5 10 7 5 4 3 3 2 2 1 1 1 2 2 2
8 8 9 11 11 10 9 9 7 6 4 6 6 5 4 6 4 3 12 11 8 6 5 4 4 4 3 3 3 3 2 1 0
9 10 11 11 11 10 9 9 9 7 4 4 7 3 5 5 5 4 12 11 10 9 7 6 6 6 6 6 6 6 5 4 3
4 3 5 5 6 4 5 5 4 6 5 4 5 6 6 4 4 7 13 13 11 11 11 10 10 9 9 9 9 8 8 8 7
4 3 4 5 5 6 6 5 6 6 7 8 7 9 6 4 2 6 14 13 13 13 13 13 12 12 12 11 11 11 11 10 9
3 4 4 4 4 6 6 6 6 8 7 7 7 6 6 6 3 3 13 13 13 14 14 14 14 14 14 14 14 13 13 13 12
5 4 4 4 4 4 4 4 8 7 7 9 6 6 5 5 6 4 6 13 13 14 15 15 16 16 16 16 15 15 15 14 15
5 5 4 4 4 5 4 6 5 4 4 6 5 5 7 6 7 5 5 7 13 15 17 17 17 16 16 14 15 16 14 14 14
4 4 4 5 4 4 4 4 4 4 4 4 5 7 5 6 7 6 5 5 6 11 16 17 17 17 18 17 17 15 11 12 12
4 3 3 6 4 4 3 4 4 3 4 5 5 6 5 5 4 6 7 6 6 6 12 16 16 16 17 19 18 17 13 11 12
5 4 4 3 3 4 3 4 4 4 4 6 5 4 5 4 5 8 7 7 8 8 8 6 7 13 16 19 21 19 16 13 13
5 4 4 4 4 5 6 4 5 4 4 3 5 7 7 6 6 7 4 5 4 6 6 5 5 7 18 19 21 21 20 17 15
3 3 3 4 3 4 5 5 4 4 5 5 4 5 4 8 12 10 10 11 10 11 11 11 12 10 7 9 17 19 20 21 20
4 4 4 4 3 3 5 6 7 9 5 10 6 2 5 3 6 14 13 14 10 9 10 13 12 11 10 11 12 19 20 20 22
1 2 4 5 4 5 6 6 8 7 9 3 9 11 4 4 3 4 11 12 12 11 9 10 11 11 7 8 10 13 16 18 20
5 4 5 5 4 5 8 9 8 8 9 9 5 8 10 11 10 9 4 4 8 9 10 10 8 8 7 5 6 8 10 14 18
Wind_Direction
192 199 156 134 127 135 125 116 102 90 100 122 125 172 284 312 302 57 64 83 107 96 91 90 88 87 85 82 79 77 76 73 71
171 151 159 152 140 142 142 137 121 120 133 161 143 198 290 294 296 143 111 103 113 106 98 95 96 93 90 85 81 80 79 73 69
186 159 174 171 165 163 159 152 145 159 182 211 154 183 289 313 302 110 106 128 131 114 107 103 105 104 96 90 85 81 80 74 67
208 180 182 181 183 168 159 162 169 179 215 217 147 174 281 298 301 139 139 137 152 140 135 128 125 123 114 109 103 97 83 72 65
220 207 193 194 188 177 168 171 181 188 199 146 162 195 260 265 276 76 138 151 164 172 172 170 169 162 154 165 161 138 106 79 62
211 205 205 191 188 181 175 178 188 193 193 181 187 200 247 257 237 148 156 161 177 194 199 202 202 208 212 227 233 235 227 216 281
194 195 198 192 191 192 188 185 188 195 219 209 198 200 237 256 229 140 162 167 186 200 209 220 226 225 228 236 241 245 250 248 251
187 145 185 175 181 180 190 191 197 202 217 223 195 205 225 241 229 162 170 175 197 210 205 213 223 229 234 239 245 248 248 250 249
162 176 183 185 179 195 194 196 192 222 224 239 209 205 205 229 229 174 177 182 197 219 223 218 223 230 236 240 244 247 249 250 252
166 178 194 199 198 191 206 192 195 204 222 235 243 236 216 210 233 163 177 190 199 216 233 236 231 235 239 243 244 247 248 247 247
175 176 196 213 216 224 211 227 206 205 206 219 224 230 237 235 213 204 194 192 202 210 226 238 246 244 242 246 246 245 245 249 245
168 170 197 198 203 218 230 243 270 219 207 216 225 230 226 233 235 218 186 194 201 210 221 229 239 248 255 254 247 242 247 249 241
238 175 194 213 193 196 211 222 241 249 213 237 231 226 212 221 227 221 209 183 197 214 220 224 229 234 241 248 251 256 248 234 233
215 239 209 207 201 196 195 214 201 216 227 229 240 252 236 224 234 228 215 205 195 188 210 217 224 230 238 244 246 247 249 228 226
207 210 223 254 185 210 208 220 223 205 228 251 248 261 248 242 233 232 226 214 212 204 191 194 220 233 237 240 246 250 248 238 219
210 211 218 221 216 205 196 207 229 243 204 249 257 259 244 255 252 258 262 236 237 212 206 189 194 208 225 230 237 239 243 241 237
225 237 253 246 240 228 205 210 242 240 196 211 244 254 241 234 233 238 248 247 244 233 218 217 216 212 202 208 230 237 238 242 244
208 244 258 267 259 252 259 237 222 238 224 210 204 229 235 213 207 228 229 230 217 223 224 224 219 214 212 207 211 217 221 227 236
166 254 259 249 234 241 239 238 235 225 236 209 224 238 221 229 284 237 223 224 227 222 224 226 224 222 221 214 209 210 216 221 233
50 32 352 314 282 256 239 241 241 237 242 235 218 227 239 247 247 248 247 240 220 225 226 227 221 206 201 201 209 189 202 208 230